sat.trackr.live / text

‹ back to catalog

SKYCRAFT-4A

NORAD 64897 · 2025-154J

PAYLOAD ACTIVE UNKNOWN

§ Identity

Operator
Country
AUS
Launch date
2025-07-23
Launch site
AFWTR
Launch vehicle
Mass (kg)
RCS (m²)

External: N2YO · Heavens-Above · Gunter

§ Orbital elements

Epoch: 2026-09-21T17:46:46.238880Z

Period
96.16 min
Inclination
97.6626°
Eccentricity
0.0003727
Mean motion
14.97515031 rev/d
Perigee alt
572.0 km
Apogee alt
577.2 km
Semi-major
6,952.7 km
B*
1.4335e-4
RAAN
327.3361°
Arg perigee
315.2247°
Mean anomaly
44.8674°
Rev number
6,183

§ Raw data

SKYCRAFT-4A1 64897U 25154J   26264.74081295  .00001614  00000+0  14335-3 0  99972 64897  97.6626 327.3361 0003727 315.2247  44.8674 14.97515031 61837

JSON: /api/v1/satellites/64897 · /tle

For live sub-satellite position, see the globe view (requires WebGL).

§ Visibility from observer

Set your observer location to see the next 7 days of passes ≥ 10°. The values pass through the URL so the page stays shareable.

No JS? Fill the form by hand. The geolocation button needs JavaScript.